Time,TemperatureF,DewpointF,PressureIn,WindDirection,WindDirectionDegrees,WindSpeedMPH,WindSpeedGustMPH,Humidity,HourlyPrecipIn,Conditions,Clouds,dailyrainin,SoftwareType,DateUTC
2013-06-13 00:02:00,73.9,36.9,27.19,North,0,0.0,0.0,26,0.00,SCT,OVC,0.00,WeatherDisplay:10.37,2013-06-13 05:02:00,
2013-06-13 00:07:00,73.8,35.7,27.19,North,0,0.0,0.0,25,0.00,SCT,OVC,0.00,WeatherDisplay:10.37,2013-06-13 05:07:00,
2013-06-13 00:12:00,73.4,36.4,27.19,North,0,0.0,0.0,26,0.00,SCT,OVC,0.00,WeatherDisplay:10.37,2013-06-13 05:12:00,
2013-06-13 00:17:00,73.2,36.3,27.19,North,0,0.0,0.0,26,0.00,BKN,OVC,0.00,WeatherDisplay:10.37,2013-06-13 05:17:00,
2013-06-13 00:22:00,73.0,37.1,27.19,North,0,0.0,0.0,27,0.00,BKN,OVC,0.00,WeatherDisplay:10.37,2013-06-13 05:22:00,
2013-06-13 00:27:00,72.7,36.8,27.19,North,0,0.0,0.0,27,0.00,BKN,OVC,0.00,WeatherDisplay:10.37,2013-06-13 05:27:00,
2013-06-13 00:32:00,72.5,37.5,27.19,North,0,0.0,0.0,28,0.00,BKN,OVC,0.00,WeatherDisplay:10.37,2013-06-13 05:32:00,
2013-06-13 00:37:00,72.3,38.3,27.19,North,0,0.0,0.0,29,0.00,BKN,OVC,0.00,WeatherDisplay:10.37,2013-06-13 05:37:00,
2013-06-13 00:42:00,72.1,38.1,27.19,North,0,0.0,0.0,29,0.00,BKN,OVC,0.00,WeatherDisplay:10.37,2013-06-13 05:42:00,
2013-06-13 00:47:00,72.0,39.7,27.19,North,0,0.0,0.0,31,0.00,BKN,OVC,0.00,WeatherDisplay:10.37,2013-06-13 05:47:00,
2013-06-13 00:52:00,71.8,40.3,27.19,North,0,0.0,0.0,32,0.00,BKN,OVC,0.00,WeatherDisplay:10.37,2013-06-13 05:52:00,
2013-06-13 00:57:00,71.2,40.6,27.19,North,0,0.0,0.0,33,0.00,BKN,OVC,0.00,WeatherDisplay:10.37,2013-06-13 05:57:00,
2013-06-13 01:02:00,70.7,40.2,27.19,North,0,0.0,0.0,33,0.00,OVC,,0.00,WeatherDisplay:10.37,2013-06-13 06:02:00,
2013-06-13 01:07:00,70.3,40.6,27.19,North,0,0.0,0.0,34,0.00,OVC,,0.00,WeatherDisplay:10.37,2013-06-13 06:07:00,
2013-06-13 01:12:00,70.0,41.1,27.19,North,0,0.0,0.0,35,0.00,OVC,,0.00,WeatherDisplay:10.37,2013-06-13 06:12:00,
2013-06-13 01:17:00,69.8,41.6,27.19,North,0,0.0,0.0,36,0.00,OVC,,0.00,WeatherDisplay:10.37,2013-06-13 06:17:00,
2013-06-13 01:22:00,69.6,42.9,27.19,North,0,0.0,0.0,38,0.00,OVC,,0.00,WeatherDisplay:10.37,2013-06-13 06:22:00,
2013-06-13 01:27:00,69.4,43.4,27.19,North,0,0.0,0.0,39,0.00,OVC,,0.00,WeatherDisplay:10.37,2013-06-13 06:27:00,
2013-06-13 01:32:00,69.4,44.1,27.19,North,0,0.0,0.0,40,0.00,OVC,,0.00,WeatherDisplay:10.37,2013-06-13 06:32:00,
2013-06-13 01:37:00,69.3,44.5,27.19,North,0,0.0,0.0,41,0.00,OVC,,0.00,WeatherDisplay:10.37,2013-06-13 06:37:00,
2013-06-13 01:42:00,69.3,45.2,27.19,North,0,0.0,0.0,42,0.00,OVC,,0.00,WeatherDisplay:10.37,2013-06-13 06:42:00,
2013-06-13 01:47:00,69.3,45.8,27.19,North,0,0.0,0.0,43,0.00,OVC,,0.00,WeatherDisplay:10.37,2013-06-13 06:47:00,
2013-06-13 01:52:00,69.4,46.0,27.19,North,0,0.0,0.0,43,0.00,OVC,,0.00,WeatherDisplay:10.37,2013-06-13 06:52:00,
2013-06-13 01:57:00,69.4,46.6,27.19,North,0,0.0,0.0,44,0.00,OVC,,0.00,WeatherDisplay:10.37,2013-06-13 06:57:00,
2013-06-13 02:02:00,69.3,47.0,27.19,North,0,0.0,0.0,45,0.00,OVC,,0.00,WeatherDisplay:10.37,2013-06-13 07:02:00,
2013-06-13 02:07:00,69.1,46.8,27.19,North,0,0.0,0.0,45,0.00,OVC,,0.00,WeatherDisplay:10.37,2013-06-13 07:07:00,
2013-06-13 02:12:00,68.7,46.5,27.19,North,0,0.0,0.0,45,0.00,OVC,,0.00,WeatherDisplay:10.37,2013-06-13 07:12:00,
2013-06-13 02:17:00,68.7,46.5,27.19,North,0,0.0,0.0,45,0.00,OVC,,0.00,WeatherDisplay:10.37,2013-06-13 07:17:00,
2013-06-13 02:22:00,68.4,46.8,27.19,North,0,0.0,0.0,46,0.00,OVC,,0.00,WeatherDisplay:10.37,2013-06-13 07:22:00,
2013-06-13 02:27:00,68.4,46.8,27.19,North,0,0.0,0.0,46,0.00,OVC,,0.00,WeatherDisplay:10.37,2013-06-13 07:27:00,
2013-06-13 02:32:00,68.2,46.6,27.19,North,0,0.0,0.0,46,0.00,OVC,,0.00,WeatherDisplay:10.37,2013-06-13 07:32:00,
2013-06-13 02:37:00,68.2,46.6,27.19,North,0,0.0,0.0,46,0.00,OVC,,0.00,WeatherDisplay:10.37,2013-06-13 07:37:00,
2013-06-13 02:42:00,68.0,46.4,27.19,North,0,0.0,0.0,46,0.00,OVC,,0.00,WeatherDisplay:10.37,2013-06-13 07:42:00,
2013-06-13 02:47:00,67.8,46.3,27.19,North,0,0.0,0.0,46,0.00,OVC,,0.00,WeatherDisplay:10.37,2013-06-13 07:47:00,
2013-06-13 02:52:00,67.8,46.3,27.19,North,0,0.0,0.0,46,0.00,OVC,,0.00,WeatherDisplay:10.37,2013-06-13 07:52:00,
2013-06-13 02:57:00,67.6,46.1,27.19,North,0,0.0,0.0,46,0.00,OVC,,0.00,WeatherDisplay:10.37,2013-06-13 07:57:00,
2013-06-13 03:02:00,67.6,45.5,27.19,North,0,0.0,0.0,45,0.00,OVC,,0.00,WeatherDisplay:10.37,2013-06-13 08:02:00,
2013-06-13 03:07:00,67.5,45.4,27.19,North,0,0.0,0.0,45,0.00,OVC,,0.00,WeatherDisplay:10.37,2013-06-13 08:07:00,
2013-06-13 03:12:00,67.5,45.4,27.19,North,0,0.0,0.0,45,0.00,OVC,,0.00,WeatherDisplay:10.37,2013-06-13 08:12:00,
2013-06-13 03:17:00,67.5,45.4,27.19,North,0,0.0,0.0,45,0.00,OVC,,0.00,WeatherDisplay:10.37,2013-06-13 08:17:00,
2013-06-13 03:22:00,67.5,44.8,27.19,North,0,0.0,0.0,44,0.00,OVC,,0.00,WeatherDisplay:10.37,2013-06-13 08:22:00,
2013-06-13 03:27:00,67.5,44.8,27.19,North,0,0.0,0.0,44,0.00,OVC,,0.00,WeatherDisplay:10.37,2013-06-13 08:27:00,
2013-06-13 03:32:00,67.5,44.8,27.19,North,0,0.0,0.0,44,0.00,OVC,,0.00,WeatherDisplay:10.37,2013-06-13 08:32:00,
2013-06-13 03:37:00,67.3,44.6,27.19,North,0,0.0,0.0,44,0.00,OVC,,0.00,WeatherDisplay:10.37,2013-06-13 08:37:00,
2013-06-13 03:42:00,67.3,44.6,27.19,North,0,0.0,0.0,44,0.00,OVC,,0.00,WeatherDisplay:10.37,2013-06-13 08:42:00,
2013-06-13 03:47:00,67.3,44.6,27.19,North,0,0.0,0.0,44,0.00,OVC,,0.00,WeatherDisplay:10.37,2013-06-13 08:47:00,
2013-06-13 03:52:00,67.3,44.6,27.19,North,0,0.0,0.0,44,0.00,OVC,,0.00,WeatherDisplay:10.37,2013-06-13 08:52:00,
2013-06-13 03:57:00,67.3,44.6,27.19,North,0,0.0,0.0,44,0.00,OVC,,0.00,WeatherDisplay:10.37,2013-06-13 08:57:00,
2013-06-13 04:02:00,67.3,44.6,27.19,North,0,0.0,0.0,44,0.00,OVC,,0.00,WeatherDisplay:10.37,2013-06-13 09:02:00,
2013-06-13 04:07:00,67.1,44.4,27.19,North,0,0.0,0.0,44,0.00,OVC,,0.00,WeatherDisplay:10.37,2013-06-13 09:07:00,
2013-06-13 04:12:00,66.9,44.3,27.19,North,0,0.0,0.0,44,0.00,OVC,,0.00,WeatherDisplay:10.37,2013-06-13 09:12:00,
2013-06-13 04:18:00,66.6,44.0,27.19,North,0,0.0,0.0,44,0.00,OVC,,0.00,WeatherDisplay:10.37,2013-06-13 09:18:00,
2013-06-13 04:23:00,66.2,42.4,27.19,North,0,0.0,0.0,42,0.00,OVC,,0.00,WeatherDisplay:10.37,2013-06-13 09:23:00,
2013-06-13 04:28:00,66.0,41.6,27.19,North,0,0.0,0.0,41,0.00,OVC,,0.00,WeatherDisplay:10.37,2013-06-13 09:28:00,
2013-06-13 04:33:00,65.8,40.8,27.19,North,0,0.0,0.0,40,0.00,OVC,,0.00,WeatherDisplay:10.37,2013-06-13 09:33:00,
2013-06-13 04:38:00,65.7,40.0,27.19,North,0,0.0,0.0,39,0.00,OVC,,0.00,WeatherDisplay:10.37,2013-06-13 09:38:00,
2013-06-13 04:43:00,65.7,40.0,27.19,North,0,0.0,0.0,39,0.00,OVC,,0.00,WeatherDisplay:10.37,2013-06-13 09:43:00,
2013-06-13 04:48:00,65.5,39.9,27.19,North,0,0.0,0.0,39,0.00,OVC,,0.00,WeatherDisplay:10.37,2013-06-13 09:48:00,
2013-06-13 04:53:00,65.5,39.9,27.19,North,0,0.0,0.0,39,0.00,OVC,,0.00,WeatherDisplay:10.37,2013-06-13 09:53:00,
2013-06-13 04:58:00,65.5,39.9,27.19,North,0,0.0,0.0,39,0.00,OVC,,0.00,WeatherDisplay:10.37,2013-06-13 09:58:00,
2013-06-13 05:03:00,65.3,39.7,27.19,North,0,0.0,0.0,39,0.00,OVC,,0.00,WeatherDisplay:10.37,2013-06-13 10:03:00,
2013-06-13 05:08:00,65.3,39.7,27.19,North,0,0.0,0.0,39,0.00,OVC,,0.00,WeatherDisplay:10.37,2013-06-13 10:08:00,
2013-06-13 05:13:00,65.1,39.5,27.19,North,0,0.0,0.0,39,0.00,OVC,,0.00,WeatherDisplay:10.37,2013-06-13 10:13:00,
2013-06-13 05:18:00,64.9,39.4,27.19,North,0,0.0,0.0,39,0.00,OVC,,0.00,WeatherDisplay:10.37,2013-06-13 10:18:00,
2013-06-13 05:23:00,64.6,39.0,27.19,North,0,0.0,0.0,39,0.00,OVC,,0.00,WeatherDisplay:10.37,2013-06-13 10:23:00,
2013-06-13 05:28:00,64.4,38.9,27.19,North,0,0.0,0.0,39,0.00,OVC,,0.00,WeatherDisplay:10.37,2013-06-13 10:28:00,
2013-06-13 05:33:00,64.2,38.7,27.19,North,0,0.0,0.0,39,0.00,OVC,,0.00,WeatherDisplay:10.37,2013-06-13 10:33:00,
2013-06-13 05:38:00,64.2,38.1,27.19,North,0,0.0,0.0,38,0.00,OVC,,0.00,WeatherDisplay:10.37,2013-06-13 10:38:00,
2013-06-13 05:43:00,63.9,37.7,27.19,North,0,0.0,0.0,38,0.00,OVC,,0.00,WeatherDisplay:10.37,2013-06-13 10:43:00,
2013-06-13 05:48:00,63.9,37.7,27.19,North,0,0.0,0.0,38,0.00,FEW,OVC,0.00,WeatherDisplay:10.37,2013-06-13 10:48:00,
2013-06-13 05:53:00,63.7,37.6,27.19,North,0,0.0,0.0,38,0.00,FEW,OVC,0.00,WeatherDisplay:10.37,2013-06-13 10:53:00,
2013-06-13 05:58:00,63.7,36.9,27.19,North,0,0.0,0.0,37,0.00,FEW,OVC,0.00,WeatherDisplay:10.37,2013-06-13 10:58:00,
2013-06-13 06:03:00,63.5,36.7,27.19,North,0,0.0,0.0,37,0.00,CLR,OVC,0.00,WeatherDisplay:10.37,2013-06-13 11:03:00,
2013-06-13 06:08:00,63.5,36.7,27.19,North,0,0.0,0.0,37,0.00,CLR,OVC,0.00,WeatherDisplay:10.37,2013-06-13 11:08:00,
2013-06-13 06:13:00,63.5,36.0,27.19,North,0,0.0,0.0,36,0.00,CLR,OVC,0.00,WeatherDisplay:10.37,2013-06-13 11:13:00,
2013-06-13 06:18:00,63.5,36.0,27.19,North,0,0.0,0.0,36,0.00,CLR,OVC,0.00,WeatherDisplay:10.37,2013-06-13 11:18:00,
2013-06-13 06:23:00,63.5,35.3,27.19,North,0,0.0,0.0,35,0.00,CLR,OVC,0.00,WeatherDisplay:10.37,2013-06-13 11:23:00,
2013-06-13 06:28:00,63.7,35.5,27.19,North,0,0.0,0.0,35,0.00,CLR,OVC,0.00,WeatherDisplay:10.37,2013-06-13 11:28:00,
2013-06-13 06:33:00,63.9,35.7,27.19,North,0,0.0,0.0,35,0.00,CLR,OVC,0.00,WeatherDisplay:10.37,2013-06-13 11:33:00,
2013-06-13 06:38:00,63.9,34.9,27.19,North,0,0.0,0.0,34,0.00,CLR,OVC,0.00,WeatherDisplay:10.37,2013-06-13 11:38:00,
2013-06-13 06:43:00,64.0,35.1,27.19,North,0,0.0,0.0,34,0.00,CLR,OVC,0.00,WeatherDisplay:10.37,2013-06-13 11:43:00,
2013-06-13 06:48:00,64.0,35.1,27.19,North,0,0.0,0.0,34,0.00,CLR,OVC,0.00,WeatherDisplay:10.37,2013-06-13 11:48:00,
2013-06-13 06:53:00,64.2,35.2,27.19,North,0,0.0,0.0,34,0.00,CLR,OVC,0.00,WeatherDisplay:10.37,2013-06-13 11:53:00,
2013-06-13 06:58:00,64.4,34.6,27.19,North,0,0.0,0.0,33,0.00,CLR,OVC,0.00,WeatherDisplay:10.37,2013-06-13 11:58:00,
2013-06-13 07:03:00,64.6,34.8,27.19,North,0,0.0,0.0,33,0.00,CLR,OVC,0.00,WeatherDisplay:10.37,2013-06-13 12:03:00,
2013-06-13 07:08:00,64.8,35.0,27.19,North,0,0.0,0.0,33,0.00,CLR,OVC,0.00,WeatherDisplay:10.37,2013-06-13 12:08:00,
2013-06-13 07:13:00,64.9,34.3,27.19,North,0,0.0,0.0,32,0.00,CLR,OVC,0.00,WeatherDisplay:10.37,2013-06-13 12:13:00,
2013-06-13 07:18:00,64.9,32.7,27.19,North,0,0.0,0.0,30,0.00,CLR,OVC,0.00,WeatherDisplay:10.37,2013-06-13 12:18:00,
2013-06-13 07:23:00,65.1,32.9,27.19,North,0,0.0,0.0,30,0.00,CLR,OVC,0.00,WeatherDisplay:10.37,2013-06-13 12:23:00,
2013-06-13 07:28:00,65.5,33.2,27.19,North,0,0.0,0.0,30,0.00,CLR,OVC,0.00,WeatherDisplay:10.37,2013-06-13 12:28:00,
2013-06-13 07:33:00,65.7,32.5,27.19,North,0,0.0,0.0,29,0.00,CLR,OVC,0.00,WeatherDisplay:10.37,2013-06-13 12:33:00,
2013-06-13 07:38:00,65.8,31.8,27.19,North,0,0.0,0.0,28,0.00,CLR,OVC,0.00,WeatherDisplay:10.37,2013-06-13 12:38:00,
2013-06-13 07:43:00,66.0,31.1,27.19,North,0,0.0,0.0,27,0.00,CLR,OVC,0.00,WeatherDisplay:10.37,2013-06-13 12:43:00,
2013-06-13 07:48:00,66.2,30.3,27.19,North,0,0.0,0.0,26,0.00,CLR,OVC,0.00,WeatherDisplay:10.37,2013-06-13 12:48:00,
2013-06-13 07:53:00,66.4,30.4,27.19,North,0,0.0,0.0,26,0.00,CLR,OVC,0.00,WeatherDisplay:10.37,2013-06-13 12:53:00,
2013-06-13 07:58:00,66.6,29.6,27.19,North,0,0.0,0.0,25,0.00,CLR,OVC,0.00,WeatherDisplay:10.37,2013-06-13 12:58:00,
2013-06-13 08:03:00,66.9,29.9,27.19,North,0,0.0,0.0,25,0.00,CLR,OVC,0.00,WeatherDisplay:10.37,2013-06-13 13:03:00,
2013-06-13 08:08:00,67.1,29.1,27.19,North,0,0.0,0.0,24,0.00,CLR,OVC,0.00,WeatherDisplay:10.37,2013-06-13 13:08:00,
2013-06-13 08:13:00,67.3,30.2,27.19,North,0,0.0,0.0,25,0.00,CLR,OVC,0.00,WeatherDisplay:10.37,2013-06-13 13:13:00,
2013-06-13 08:18:00,67.5,28.3,27.19,North,0,0.0,0.0,23,0.00,CLR,OVC,0.00,WeatherDisplay:10.37,2013-06-13 13:18:00,
2013-06-13 08:23:00,67.8,28.6,27.19,North,0,0.0,0.0,23,0.00,CLR,OVC,0.00,WeatherDisplay:10.37,2013-06-13 13:23:00,
2013-06-13 08:28:00,68.2,28.9,27.19,North,0,0.0,0.0,23,0.00,CLR,OVC,0.00,WeatherDisplay:10.37,2013-06-13 13:28:00,
2013-06-13 08:33:00,68.5,28.2,27.19,North,0,0.0,0.0,22,0.00,CLR,OVC,0.00,WeatherDisplay:10.37,2013-06-13 13:33:00,
2013-06-13 08:38:00,68.7,26.0,27.19,North,0,0.0,0.0,20,0.00,CLR,OVC,0.00,WeatherDisplay:10.37,2013-06-13 13:38:00,
2013-06-13 08:43:00,69.1,26.3,27.19,North,0,0.0,0.0,20,0.00,CLR,OVC,0.00,WeatherDisplay:10.37,2013-06-13 13:43:00,
2013-06-13 08:48:00,69.4,22.7,27.19,North,0,0.0,0.0,17,0.00,CLR,OVC,0.00,WeatherDisplay:10.37,2013-06-13 13:48:00,
2013-06-13 08:53:00,69.8,23.0,27.19,North,0,0.0,0.0,17,0.00,CLR,OVC,0.00,WeatherDisplay:10.37,2013-06-13 13:53:00,
2013-06-13 08:58:00,69.8,18.4,27.19,North,0,0.0,0.0,14,0.00,CLR,OVC,0.00,WeatherDisplay:10.37,2013-06-13 13:58:00,
2013-06-13 09:03:00,70.2,18.7,27.19,North,0,0.0,0.0,14,0.00,CLR,OVC,0.00,WeatherDisplay:10.37,2013-06-13 14:03:00,
2013-06-13 09:08:00,70.5,19.0,27.19,North,0,0.0,0.0,14,0.00,CLR,OVC,0.00,WeatherDisplay:10.37,2013-06-13 14:08:00,
2013-06-13 09:13:00,70.5,15.4,27.19,North,0,0.0,0.0,12,0.00,CLR,OVC,0.00,WeatherDisplay:10.37,2013-06-13 14:13:00,
2013-06-13 09:18:00,70.7,15.5,27.19,North,0,0.0,0.0,12,0.00,CLR,OVC,0.00,WeatherDisplay:10.37,2013-06-13 14:18:00,
2013-06-13 09:23:00,71.1,19.4,27.19,North,0,0.0,0.0,14,0.00,CLR,OVC,0.00,WeatherDisplay:10.37,2013-06-13 14:23:00,
2013-06-13 09:28:00,71.2,16.0,27.19,North,0,0.0,0.0,12,0.00,CLR,OVC,0.00,WeatherDisplay:10.37,2013-06-13 14:28:00,
2013-06-13 09:33:00,71.6,14.2,27.19,North,0,0.0,0.0,11,0.00,CLR,OVC,0.00,WeatherDisplay:10.37,2013-06-13 14:33:00,
2013-06-13 09:38:00,72.0,14.5,27.19,North,0,0.0,0.0,11,0.00,CLR,OVC,0.00,WeatherDisplay:10.37,2013-06-13 14:38:00,
2013-06-13 09:43:00,72.0,14.5,27.19,North,0,0.0,0.0,11,0.00,CLR,OVC,0.00,WeatherDisplay:10.37,2013-06-13 14:43:00,
2013-06-13 09:48:00,72.3,14.8,27.19,North,0,0.0,0.0,11,0.00,CLR,OVC,0.00,WeatherDisplay:10.37,2013-06-13 14:48:00,
2013-06-13 09:53:00,72.5,14.9,27.19,North,0,0.0,0.0,11,0.00,CLR,OVC,0.00,WeatherDisplay:10.37,2013-06-13 14:53:00,
2013-06-13 09:58:00,72.7,15.1,27.19,North,0,0.0,0.0,11,0.00,CLR,OVC,0.00,WeatherDisplay:10.37,2013-06-13 14:58:00,
2013-06-13 10:03:00,72.7,15.1,27.19,North,0,0.0,0.0,11,0.00,CLR,OVC,0.00,WeatherDisplay:10.37,2013-06-13 15:03:00,
2013-06-13 10:08:00,72.9,15.2,27.19,North,0,0.0,0.0,11,0.00,CLR,OVC,0.00,WeatherDisplay:10.37,2013-06-13 15:08:00,
2013-06-13 10:13:00,73.0,10.8,27.19,North,0,0.0,0.0,9,0.00,CLR,OVC,0.00,WeatherDisplay:10.37,2013-06-13 15:13:00,
2013-06-13 10:18:00,73.2,15.5,27.19,North,0,0.0,0.0,11,0.00,CLR,OVC,0.00,WeatherDisplay:10.37,2013-06-13 15:18:00,
2013-06-13 10:23:00,73.6,15.8,27.19,North,0,0.0,0.0,11,0.00,CLR,OVC,0.00,WeatherDisplay:10.37,2013-06-13 15:23:00,
2013-06-13 10:28:00,73.8,8.7,27.19,North,0,0.0,0.0,8,0.00,CLR,OVC,0.00,WeatherDisplay:10.37,2013-06-13 15:28:00,
2013-06-13 10:33:00,73.9,8.8,27.19,North,0,0.0,0.0,8,0.00,CLR,OVC,0.00,WeatherDisplay:10.37,2013-06-13 15:33:00,
2013-06-13 10:38:00,74.1,9.0,27.19,North,0,0.0,0.0,8,0.00,CLR,OVC,0.00,WeatherDisplay:10.37,2013-06-13 15:38:00,
2013-06-13 10:43:00,74.5,9.2,27.19,North,0,0.0,0.0,8,0.00,CLR,OVC,0.00,WeatherDisplay:10.37,2013-06-13 15:43:00,
2013-06-13 10:48:00,74.8,9.5,27.19,North,0,0.0,0.0,8,0.00,CLR,OVC,0.00,WeatherDisplay:10.37,2013-06-13 15:48:00,
2013-06-13 10:53:00,75.2,9.8,27.19,North,0,0.0,0.0,8,0.00,CLR,OVC,0.00,WeatherDisplay:10.37,2013-06-13 15:53:00,
2013-06-13 10:58:00,75.7,10.2,27.19,North,0,0.0,0.0,8,0.00,CLR,OVC,0.00,WeatherDisplay:10.37,2013-06-13 15:58:00,
2013-06-13 11:03:00,76.1,10.4,27.19,North,0,0.0,0.0,8,0.00,CLR,OVC,0.00,WeatherDisplay:10.37,2013-06-13 16:03:00,
2013-06-13 11:08:00,76.6,10.9,27.19,North,0,0.0,0.0,8,0.00,CLR,OVC,0.00,WeatherDisplay:10.37,2013-06-13 16:08:00,
2013-06-13 11:13:00,77.0,11.1,27.19,North,0,0.0,0.0,8,0.00,CLR,OVC,0.00,WeatherDisplay:10.37,2013-06-13 16:13:00,
2013-06-13 11:18:00,77.5,11.5,27.19,North,0,0.0,0.0,8,0.00,CLR,OVC,0.00,WeatherDisplay:10.37,2013-06-13 16:18:00,
2013-06-13 11:23:00,78.4,12.2,27.19,North,0,0.0,0.0,8,0.00,CLR,OVC,0.00,WeatherDisplay:10.37,2013-06-13 16:23:00,
2013-06-13 11:28:00,78.8,9.5,27.19,North,0,0.0,0.0,7,0.00,CLR,OVC,0.00,WeatherDisplay:10.37,2013-06-13 16:28:00,
2013-06-13 11:33:00,79.5,10.0,27.19,North,0,0.0,0.0,7,0.00,CLR,OVC,0.00,WeatherDisplay:10.37,2013-06-13 16:33:00,
2013-06-13 11:38:00,80.1,10.4,27.19,North,0,0.0,0.0,7,0.00,CLR,OVC,0.00,WeatherDisplay:10.37,2013-06-13 16:38:00,
2013-06-13 11:43:00,80.8,10.9,27.19,North,0,0.0,0.0,7,0.00,CLR,OVC,0.00,WeatherDisplay:10.37,2013-06-13 16:43:00,
2013-06-13 11:48:00,80.2,10.5,27.19,North,0,0.0,0.0,7,0.00,CLR,OVC,0.00,WeatherDisplay:10.37,2013-06-13 16:48:00,
2013-06-13 11:53:00,80.1,10.4,27.19,North,0,0.0,0.0,7,0.00,CLR,OVC,0.00,WeatherDisplay:10.37,2013-06-13 16:53:00,
2013-06-13 11:58:00,80.2,10.5,27.19,North,0,0.0,0.0,7,0.00,CLR,OVC,0.00,WeatherDisplay:10.37,2013-06-13 16:58:00,
2013-06-13 12:03:00,81.0,11.0,27.19,North,0,0.0,0.0,7,0.00,CLR,OVC,0.00,WeatherDisplay:10.37,2013-06-13 17:03:00,
2013-06-13 12:08:00,81.9,11.7,27.19,North,0,0.0,0.0,7,0.00,CLR,OVC,0.00,WeatherDisplay:10.37,2013-06-13 17:08:00,
2013-06-13 12:13:00,82.0,11.8,27.19,North,0,0.0,0.0,7,0.00,CLR,OVC,0.00,WeatherDisplay:10.37,2013-06-13 17:13:00,
2013-06-13 12:18:00,81.9,11.7,27.19,North,0,0.0,0.0,7,0.00,CLR,OVC,0.00,WeatherDisplay:10.37,2013-06-13 17:18:00,
2013-06-13 12:23:00,82.0,11.8,27.19,North,0,0.0,0.0,7,0.00,CLR,OVC,0.00,WeatherDisplay:10.37,2013-06-13 17:23:00,
2013-06-13 12:28:00,82.6,8.8,27.19,North,0,0.0,0.0,6,0.00,CLR,OVC,0.00,WeatherDisplay:10.37,2013-06-13 17:28:00,
2013-06-13 12:33:00,82.2,12.0,27.19,North,0,0.0,0.0,7,0.00,CLR,OVC,0.00,WeatherDisplay:10.37,2013-06-13 17:33:00,
2013-06-13 12:38:00,82.6,8.8,27.19,North,0,0.0,0.0,6,0.00,CLR,OVC,0.00,WeatherDisplay:10.37,2013-06-13 17:38:00,
2013-06-13 12:43:00,82.2,12.0,27.19,North,0,0.0,0.0,7,0.00,CLR,OVC,0.00,WeatherDisplay:10.37,2013-06-13 17:43:00,
2013-06-13 12:48:00,81.9,11.7,27.19,North,0,0.0,0.0,7,0.00,CLR,OVC,0.00,WeatherDisplay:10.37,2013-06-13 17:48:00,
2013-06-13 12:53:00,81.9,11.7,27.19,North,0,0.0,0.0,7,0.00,CLR,OVC,0.00,WeatherDisplay:10.37,2013-06-13 17:53:00,
2013-06-13 12:58:00,82.2,12.0,27.19,North,0,0.0,0.0,7,0.00,CLR,OVC,0.00,WeatherDisplay:10.37,2013-06-13 17:58:00,
2013-06-13 13:03:00,82.2,12.0,27.19,North,0,0.0,0.0,7,0.00,FEW,OVC,0.00,WeatherDisplay:10.37,2013-06-13 18:03:00,
2013-06-13 13:08:00,82.6,8.8,27.19,North,0,0.0,0.0,6,0.00,FEW,OVC,0.00,WeatherDisplay:10.37,2013-06-13 18:08:00,
2013-06-13 13:13:00,82.4,8.6,27.19,North,0,0.0,0.0,6,0.00,FEW,OVC,0.00,WeatherDisplay:10.37,2013-06-13 18:13:00,
2013-06-13 13:18:00,82.2,12.0,27.19,North,0,0.0,0.0,7,0.00,FEW,OVC,0.00,WeatherDisplay:10.37,2013-06-13 18:18:00,
2013-06-13 13:23:00,82.6,8.8,27.19,North,0,0.0,0.0,6,0.00,FEW,OVC,0.00,WeatherDisplay:10.37,2013-06-13 18:23:00,
2013-06-13 13:28:00,82.8,8.9,27.19,North,0,0.0,0.0,6,0.00,FEW,OVC,0.00,WeatherDisplay:10.37,2013-06-13 18:28:00,
2013-06-13 13:33:00,82.2,12.0,27.19,North,0,0.0,0.0,7,0.00,FEW,OVC,0.00,WeatherDisplay:10.37,2013-06-13 18:33:00,
2013-06-13 13:38:00,81.9,11.7,27.19,North,0,0.0,0.0,7,0.00,FEW,OVC,0.00,WeatherDisplay:10.37,2013-06-13 18:38:00,
2013-06-13 13:43:00,82.0,11.8,27.19,North,0,0.0,0.0,7,0.00,FEW,OVC,0.00,WeatherDisplay:10.37,2013-06-13 18:43:00,
2013-06-13 13:48:00,82.0,11.8,27.19,North,0,0.0,0.0,7,0.00,FEW,OVC,0.00,WeatherDisplay:10.37,2013-06-13 18:48:00,
2013-06-13 13:53:00,82.6,8.8,27.19,North,0,0.0,0.0,6,0.00,FEW,OVC,0.00,WeatherDisplay:10.37,2013-06-13 18:53:00,
2013-06-13 13:58:00,82.9,9.0,27.19,North,0,0.0,0.0,6,0.00,FEW,OVC,0.00,WeatherDisplay:10.37,2013-06-13 18:58:00,
2013-06-13 14:03:00,82.2,12.0,27.19,North,0,0.0,0.0,7,0.00,FEW,OVC,0.00,WeatherDisplay:10.37,2013-06-13 19:03:00,
2013-06-13 14:08:00,82.4,8.6,27.19,North,0,0.0,0.0,6,0.00,FEW,OVC,0.00,WeatherDisplay:10.37,2013-06-13 19:08:00,
2013-06-13 14:13:00,81.9,11.7,27.19,North,0,0.0,0.0,7,0.00,FEW,OVC,0.00,WeatherDisplay:10.37,2013-06-13 19:13:00,
2013-06-13 14:18:00,81.9,11.7,27.19,North,0,0.0,0.0,7,0.00,FEW,OVC,0.00,WeatherDisplay:10.37,2013-06-13 19:18:00,
2013-06-13 14:23:00,82.6,8.8,27.19,North,0,0.0,0.0,6,0.00,FEW,OVC,0.00,WeatherDisplay:10.37,2013-06-13 19:23:00,
2013-06-13 14:28:00,83.5,9.4,27.19,North,0,0.0,0.0,6,0.00,FEW,OVC,0.00,WeatherDisplay:10.37,2013-06-13 19:28:00,
2013-06-13 14:33:00,84.0,9.8,27.19,North,0,0.0,0.0,6,0.00,FEW,OVC,0.00,WeatherDisplay:10.37,2013-06-13 19:33:00,
2013-06-13 14:38:00,83.8,9.7,27.19,North,0,0.0,0.0,6,0.00,FEW,OVC,0.00,WeatherDisplay:10.37,2013-06-13 19:38:00,
2013-06-13 14:43:00,83.8,9.7,27.19,North,0,0.0,0.0,6,0.00,FEW,OVC,0.00,WeatherDisplay:10.37,2013-06-13 19:43:00,
2013-06-13 14:48:00,83.3,9.3,27.19,North,0,0.0,0.0,6,0.00,FEW,OVC,0.00,WeatherDisplay:10.37,2013-06-13 19:48:00,
2013-06-13 14:53:00,82.4,8.6,27.19,North,0,0.0,0.0,6,0.00,FEW,OVC,0.00,WeatherDisplay:10.37,2013-06-13 19:53:00,
2013-06-13 14:58:00,82.2,12.0,27.19,North,0,0.0,0.0,7,0.00,FEW,OVC,0.00,WeatherDisplay:10.37,2013-06-13 19:58:00,
2013-06-13 15:03:00,82.9,9.0,27.19,North,0,0.0,0.0,6,0.00,FEW,OVC,0.00,WeatherDisplay:10.37,2013-06-13 20:03:00,
2013-06-13 15:08:00,83.3,9.3,27.19,North,0,0.0,0.0,6,0.00,FEW,OVC,0.00,WeatherDisplay:10.37,2013-06-13 20:08:00,
2013-06-13 15:13:00,82.4,8.6,27.19,North,0,0.0,0.0,6,0.00,FEW,OVC,0.00,WeatherDisplay:10.37,2013-06-13 20:13:00,
2013-06-13 15:18:00,82.4,8.6,27.19,North,0,0.0,0.0,6,0.00,FEW,OVC,0.00,WeatherDisplay:10.37,2013-06-13 20:18:00,
2013-06-13 15:23:00,82.6,8.8,27.19,North,0,0.0,0.0,6,0.00,FEW,OVC,0.00,WeatherDisplay:10.37,2013-06-13 20:23:00,
2013-06-13 15:28:00,82.0,11.8,27.19,North,0,0.0,0.0,7,0.00,FEW,OVC,0.00,WeatherDisplay:10.37,2013-06-13 20:28:00,
2013-06-13 15:33:00,81.1,11.2,27.19,North,0,0.0,0.0,7,0.00,FEW,OVC,0.00,WeatherDisplay:10.37,2013-06-13 20:33:00,
2013-06-13 15:38:00,80.8,10.9,27.19,North,0,0.0,0.0,7,0.00,FEW,OVC,0.00,WeatherDisplay:10.37,2013-06-13 20:38:00,
2013-06-13 15:43:00,80.8,10.9,27.19,North,0,0.0,0.0,7,0.00,FEW,OVC,0.00,WeatherDisplay:10.37,2013-06-13 20:43:00,
2013-06-13 15:48:00,81.9,11.7,27.19,North,0,0.0,0.0,7,0.00,FEW,OVC,0.00,WeatherDisplay:10.37,2013-06-13 20:48:00,
2013-06-13 15:53:00,82.6,8.8,27.19,North,0,0.0,0.0,6,0.00,FEW,OVC,0.00,WeatherDisplay:10.37,2013-06-13 20:53:00,
2013-06-13 15:58:00,83.1,9.2,27.19,North,0,0.0,0.0,6,0.00,FEW,OVC,0.00,WeatherDisplay:10.37,2013-06-13 20:58:00,
2013-06-13 16:03:00,83.1,9.2,27.19,North,0,0.0,0.0,6,0.00,FEW,OVC,0.00,WeatherDisplay:10.37,2013-06-13 21:03:00,
2013-06-13 16:08:00,82.8,8.9,27.19,North,0,0.0,0.0,6,0.00,FEW,OVC,0.00,WeatherDisplay:10.37,2013-06-13 21:08:00,
2013-06-13 16:13:00,82.0,11.8,27.19,North,0,0.0,0.0,7,0.00,FEW,OVC,0.00,WeatherDisplay:10.37,2013-06-13 21:13:00,
2013-06-13 16:18:00,82.0,11.8,27.19,North,0,0.0,0.0,7,0.00,FEW,OVC,0.00,WeatherDisplay:10.37,2013-06-13 21:18:00,
2013-06-13 16:23:00,82.4,8.6,27.19,North,0,0.0,0.0,6,0.00,FEW,OVC,0.00,WeatherDisplay:10.37,2013-06-13 21:23:00,
2013-06-13 16:28:00,81.9,11.7,27.19,North,0,0.0,0.0,7,0.00,FEW,OVC,0.00,WeatherDisplay:10.37,2013-06-13 21:28:00,
2013-06-13 16:33:00,81.7,11.6,27.19,North,0,0.0,0.0,7,0.00,FEW,OVC,0.00,WeatherDisplay:10.37,2013-06-13 21:33:00,
2013-06-13 16:38:00,81.9,11.7,27.19,North,0,0.0,0.0,7,0.00,FEW,OVC,0.00,WeatherDisplay:10.37,2013-06-13 21:38:00,
2013-06-13 16:43:00,82.9,9.0,27.19,North,0,0.0,0.0,6,0.00,FEW,OVC,0.00,WeatherDisplay:10.37,2013-06-13 21:43:00,
2013-06-13 16:48:00,83.1,9.2,27.19,North,0,0.0,0.0,6,0.00,FEW,OVC,0.00,WeatherDisplay:10.37,2013-06-13 21:48:00,
2013-06-13 16:53:00,82.8,8.9,27.19,North,0,0.0,0.0,6,0.00,FEW,OVC,0.00,WeatherDisplay:10.37,2013-06-13 21:53:00,
2013-06-13 16:58:00,82.6,8.8,27.19,North,0,0.0,0.0,6,0.00,FEW,OVC,0.00,WeatherDisplay:10.37,2013-06-13 21:58:00,
2013-06-13 17:03:00,82.2,12.0,27.19,North,0,0.0,0.0,7,0.00,FEW,OVC,0.00,WeatherDisplay:10.37,2013-06-13 22:03:00,
2013-06-13 17:08:00,82.0,11.8,27.19,North,0,0.0,0.0,7,0.00,FEW,OVC,0.00,WeatherDisplay:10.37,2013-06-13 22:08:00,
2013-06-13 17:13:00,81.7,11.6,27.19,North,0,0.0,0.0,7,0.00,FEW,OVC,0.00,WeatherDisplay:10.37,2013-06-13 22:13:00,
2013-06-13 17:18:00,81.0,11.0,27.19,North,0,0.0,0.0,7,0.00,FEW,OVC,0.00,WeatherDisplay:10.37,2013-06-13 22:18:00,
2013-06-13 17:23:00,80.4,10.6,27.19,North,0,0.0,0.0,7,0.00,FEW,OVC,0.00,WeatherDisplay:10.37,2013-06-13 22:23:00,
2013-06-13 17:28:00,80.4,10.6,27.19,North,0,0.0,0.0,7,0.00,FEW,OVC,0.00,WeatherDisplay:10.37,2013-06-13 22:28:00,
2013-06-13 17:33:00,80.6,10.8,27.19,North,0,0.0,0.0,7,0.00,FEW,OVC,0.00,WeatherDisplay:10.37,2013-06-13 22:33:00,
2013-06-13 17:38:00,80.4,10.6,27.19,North,0,0.0,0.0,7,0.00,FEW,OVC,0.00,WeatherDisplay:10.37,2013-06-13 22:38:00,
2013-06-13 17:43:00,80.6,10.8,27.19,North,0,0.0,0.0,7,0.00,FEW,OVC,0.00,WeatherDisplay:10.37,2013-06-13 22:43:00,
2013-06-13 17:48:00,80.2,10.5,27.19,North,0,0.0,0.0,7,0.00,FEW,OVC,0.00,WeatherDisplay:10.37,2013-06-13 22:48:00,
2013-06-13 17:53:00,79.3,9.9,27.19,North,0,0.0,0.0,7,0.00,FEW,OVC,0.00,WeatherDisplay:10.37,2013-06-13 22:53:00,
2013-06-13 17:58:00,78.4,12.2,27.19,North,0,0.0,0.0,8,0.00,FEW,OVC,0.00,WeatherDisplay:10.37,2013-06-13 22:58:00,
2013-06-13 18:03:00,77.9,11.8,27.19,North,0,0.0,0.0,8,0.00,FEW,OVC,0.00,WeatherDisplay:10.37,2013-06-13 23:03:00,
2013-06-13 18:08:00,77.9,11.8,27.19,North,0,0.0,0.0,8,0.00,FEW,OVC,0.00,WeatherDisplay:10.37,2013-06-13 23:08:00,
2013-06-13 18:13:00,77.7,11.7,27.19,North,0,0.0,0.0,8,0.00,FEW,OVC,0.00,WeatherDisplay:10.37,2013-06-13 23:13:00,
2013-06-13 18:18:00,77.7,11.7,27.19,North,0,0.0,0.0,8,0.00,FEW,OVC,0.00,WeatherDisplay:10.37,2013-06-13 23:18:00,
2013-06-13 18:23:00,77.5,11.5,27.19,North,0,0.0,0.0,8,0.00,FEW,OVC,0.00,WeatherDisplay:10.37,2013-06-13 23:23:00,
2013-06-13 18:28:00,77.5,11.5,27.19,North,0,0.0,0.0,8,0.00,FEW,OVC,0.00,WeatherDisplay:10.37,2013-06-13 23:28:00,
2013-06-13 18:33:00,77.5,11.5,27.19,North,0,0.0,0.0,8,0.00,FEW,OVC,0.00,WeatherDisplay:10.37,2013-06-13 23:33:00,
2013-06-13 18:38:00,77.7,11.7,27.19,North,0,0.0,0.0,8,0.00,FEW,OVC,0.00,WeatherDisplay:10.37,2013-06-13 23:38:00,
2013-06-13 18:43:00,77.5,11.5,27.19,North,0,0.0,0.0,8,0.00,FEW,OVC,0.00,WeatherDisplay:10.37,2013-06-13 23:43:00,
2013-06-13 18:48:00,77.2,11.3,27.19,North,0,0.0,0.0,8,0.00,FEW,OVC,0.00,WeatherDisplay:10.37,2013-06-13 23:48:00,
2013-06-13 18:53:00,76.8,11.0,27.19,North,0,0.0,0.0,8,0.00,FEW,OVC,0.00,WeatherDisplay:10.37,2013-06-13 23:53:00,
2013-06-13 18:58:00,76.3,10.6,27.19,North,0,0.0,0.0,8,0.00,FEW,OVC,0.00,WeatherDisplay:10.37,2013-06-13 23:58:00,
2013-06-13 19:03:00,76.1,10.4,27.19,North,0,0.0,0.0,8,0.00,FEW,OVC,0.00,WeatherDisplay:10.37,2013-06-14 00:03:00,
2013-06-13 19:08:00,75.9,10.3,27.19,North,0,0.0,0.0,8,0.00,FEW,OVC,0.00,WeatherDisplay:10.37,2013-06-14 00:08:00,
2013-06-13 19:13:00,75.9,10.3,27.19,North,0,0.0,0.0,8,0.00,FEW,OVC,0.00,WeatherDisplay:10.37,2013-06-14 00:13:00,
2013-06-13 19:18:00,76.1,10.4,27.19,North,0,0.0,0.0,8,0.00,FEW,OVC,0.00,WeatherDisplay:10.37,2013-06-14 00:18:00,
2013-06-13 19:23:00,76.1,10.4,27.19,North,0,0.0,0.0,8,0.00,FEW,OVC,0.00,WeatherDisplay:10.37,2013-06-14 00:23:00,
2013-06-13 19:28:00,75.9,10.3,27.19,North,0,0.0,0.0,8,0.00,FEW,OVC,0.00,WeatherDisplay:10.37,2013-06-14 00:28:00,
2013-06-13 19:33:00,75.9,10.3,27.19,North,0,0.0,0.0,8,0.00,FEW,OVC,0.00,WeatherDisplay:10.37,2013-06-14 00:33:00,
2013-06-13 19:38:00,75.6,10.0,27.19,North,0,0.0,0.0,8,0.00,FEW,OVC,0.00,WeatherDisplay:10.37,2013-06-14 00:38:00,
2013-06-13 19:43:00,75.2,9.8,27.19,North,0,0.0,0.0,8,0.00,FEW,OVC,0.00,WeatherDisplay:10.37,2013-06-14 00:43:00,
2013-06-13 19:48:00,74.8,9.5,27.19,North,0,0.0,0.0,8,0.00,FEW,OVC,0.00,WeatherDisplay:10.37,2013-06-14 00:48:00,
2013-06-13 19:53:00,74.5,9.2,27.19,North,0,0.0,0.0,8,0.00,FEW,OVC,0.00,WeatherDisplay:10.37,2013-06-14 00:53:00,
2013-06-13 19:58:00,74.1,9.0,27.19,North,0,0.0,0.0,8,0.00,FEW,OVC,0.00,WeatherDisplay:10.37,2013-06-14 00:58:00,
2013-06-13 20:03:00,73.8,8.7,27.19,North,0,0.0,0.0,8,0.00,FEW,OVC,0.00,WeatherDisplay:10.37,2013-06-14 01:03:00,
2013-06-13 20:08:00,73.6,8.6,27.19,North,0,0.0,0.0,8,0.00,FEW,OVC,0.00,WeatherDisplay:10.37,2013-06-14 01:08:00,
2013-06-13 20:13:00,73.4,8.4,27.19,North,0,0.0,0.0,8,0.00,FEW,OVC,0.00,WeatherDisplay:10.37,2013-06-14 01:13:00,
2013-06-13 20:18:00,73.2,10.9,27.19,North,0,0.0,0.0,9,0.00,CLR,OVC,0.00,WeatherDisplay:10.37,2013-06-14 01:18:00,
2013-06-13 20:23:00,72.9,10.7,27.19,North,0,0.0,0.0,9,0.00,CLR,OVC,0.00,WeatherDisplay:10.37,2013-06-14 01:23:00,
2013-06-13 20:28:00,72.7,10.5,27.19,North,0,0.0,0.0,9,0.00,CLR,OVC,0.00,WeatherDisplay:10.37,2013-06-14 01:28:00,
2013-06-13 20:33:00,72.5,10.4,27.19,North,0,0.0,0.0,9,0.00,CLR,OVC,0.00,WeatherDisplay:10.37,2013-06-14 01:33:00,
2013-06-13 20:38:00,72.3,10.3,27.19,North,0,0.0,0.0,9,0.00,CLR,OVC,0.00,WeatherDisplay:10.37,2013-06-14 01:38:00,
2013-06-13 20:43:00,72.0,10.0,27.19,North,0,0.0,0.0,9,0.00,CLR,OVC,0.00,WeatherDisplay:10.37,2013-06-14 01:43:00,
2013-06-13 20:48:00,71.8,9.8,27.19,North,0,0.0,0.0,9,0.00,CLR,OVC,0.00,WeatherDisplay:10.37,2013-06-14 01:48:00,
2013-06-13 20:53:00,71.6,9.7,27.19,North,0,0.0,0.0,9,0.00,CLR,OVC,0.00,WeatherDisplay:10.37,2013-06-14 01:53:00,
2013-06-13 20:58:00,71.4,9.6,27.19,North,0,0.0,0.0,9,0.00,CLR,OVC,0.00,WeatherDisplay:10.37,2013-06-14 01:58:00,
2013-06-13 21:03:00,71.2,9.4,27.19,North,0,0.0,0.0,9,0.00,CLR,OVC,0.00,WeatherDisplay:10.37,2013-06-14 02:03:00,
2013-06-13 21:08:00,71.1,9.3,27.19,North,0,0.0,0.0,9,0.00,CLR,OVC,0.00,WeatherDisplay:10.37,2013-06-14 02:08:00,
2013-06-13 21:13:00,70.9,9.2,27.19,North,0,0.0,0.0,9,0.00,CLR,OVC,0.00,WeatherDisplay:10.37,2013-06-14 02:13:00,
2013-06-13 21:18:00,70.5,8.9,27.19,North,0,0.0,0.0,9,0.00,CLR,OVC,0.00,WeatherDisplay:10.37,2013-06-14 02:18:00,
2013-06-13 21:23:00,70.3,8.8,27.19,North,0,0.0,0.0,9,0.00,CLR,OVC,0.00,WeatherDisplay:10.37,2013-06-14 02:23:00,
2013-06-13 21:28:00,70.2,8.6,27.19,North,0,0.0,0.0,9,0.00,CLR,OVC,0.00,WeatherDisplay:10.37,2013-06-14 02:28:00,
2013-06-13 21:33:00,70.0,8.5,27.19,North,0,0.0,0.0,9,0.00,CLR,OVC,0.00,WeatherDisplay:10.37,2013-06-14 02:33:00,
2013-06-13 21:38:00,69.8,8.3,27.19,North,0,0.0,0.0,9,0.00,CLR,OVC,0.00,WeatherDisplay:10.37,2013-06-14 02:38:00,
2013-06-13 21:43:00,69.6,10.6,27.19,North,0,0.0,0.0,10,0.00,CLR,OVC,0.00,WeatherDisplay:10.37,2013-06-14 02:43:00,
2013-06-13 21:48:00,69.3,10.3,27.19,North,0,0.0,0.0,10,0.00,CLR,OVC,0.00,WeatherDisplay:10.37,2013-06-14 02:48:00,
2013-06-13 21:53:00,69.1,10.1,27.19,North,0,0.0,0.0,10,0.00,CLR,OVC,0.00,WeatherDisplay:10.37,2013-06-14 02:53:00,
2013-06-13 21:58:00,68.9,10.0,27.19,North,0,0.0,0.0,10,0.00,CLR,OVC,0.00,WeatherDisplay:10.37,2013-06-14 02:58:00,
2013-06-13 22:03:00,68.7,14.0,27.19,North,0,0.0,0.0,12,0.00,CLR,OVC,0.00,WeatherDisplay:10.37,2013-06-14 03:03:00,
2013-06-13 22:09:00,68.5,13.9,27.19,North,0,0.0,0.0,12,0.00,CLR,OVC,0.00,WeatherDisplay:10.37,2013-06-14 03:09:00,
2013-06-13 22:14:00,68.2,13.6,27.19,North,0,0.0,0.0,12,0.00,CLR,OVC,0.00,WeatherDisplay:10.37,2013-06-14 03:14:00,
2013-06-13 22:19:00,68.0,13.4,27.19,North,0,0.0,0.0,12,0.00,CLR,OVC,0.00,WeatherDisplay:10.37,2013-06-14 03:19:00,
2013-06-13 22:24:00,68.0,13.4,27.19,North,0,0.0,0.0,12,0.00,CLR,OVC,0.00,WeatherDisplay:10.37,2013-06-14 03:24:00,
2013-06-13 22:29:00,67.8,13.3,27.19,North,0,0.0,0.0,12,0.00,CLR,OVC,0.00,WeatherDisplay:10.37,2013-06-14 03:29:00,
2013-06-13 22:34:00,67.6,13.1,27.19,North,0,0.0,0.0,12,0.00,CLR,OVC,0.00,WeatherDisplay:10.37,2013-06-14 03:34:00,
2013-06-13 22:39:00,67.6,13.1,27.19,North,0,0.0,0.0,12,0.00,CLR,OVC,0.00,WeatherDisplay:10.37,2013-06-14 03:39:00,
2013-06-13 22:44:00,67.5,13.0,27.19,North,0,0.0,0.0,12,0.00,CLR,OVC,0.00,WeatherDisplay:10.37,2013-06-14 03:44:00,
2013-06-13 22:49:00,67.3,18.0,27.19,North,0,0.0,0.0,15,0.00,CLR,OVC,0.00,WeatherDisplay:10.37,2013-06-14 03:49:00,
2013-06-13 22:54:00,67.1,17.8,27.19,North,0,0.0,0.0,15,0.00,CLR,OVC,0.00,WeatherDisplay:10.37,2013-06-14 03:54:00,
2013-06-13 22:59:00,67.1,17.8,27.19,North,0,0.0,0.0,15,0.00,CLR,OVC,0.00,WeatherDisplay:10.37,2013-06-14 03:59:00,
2013-06-13 23:01:00,67.1,17.8,27.19,North,0,0.0,0.0,15,0.00,CLR,OVC,0.00,WeatherDisplay:10.37,2013-06-14 04:01:00,
2013-06-13 23:04:00,67.3,18.0,27.19,North,0,0.0,0.0,15,0.00,CLR,OVC,0.00,WeatherDisplay:10.37,2013-06-14 04:04:00,
2013-06-13 23:08:00,67.3,18.0,27.19,North,0,0.0,0.0,15,0.00,CLR,OVC,0.00,WeatherDisplay:10.37,2013-06-14 04:08:00,
2013-06-13 23:13:00,67.1,17.8,27.19,North,0,0.0,0.0,15,0.00,CLR,OVC,0.00,WeatherDisplay:10.37,2013-06-14 04:13:00,
2013-06-13 23:18:00,66.9,20.6,27.19,North,0,0.0,0.0,17,0.00,CLR,OVC,0.00,WeatherDisplay:10.37,2013-06-14 04:18:00,
2013-06-13 23:23:00,66.7,20.5,27.19,North,0,0.0,0.0,17,0.00,CLR,OVC,0.00,WeatherDisplay:10.37,2013-06-14 04:23:00,
2013-06-13 23:28:00,66.6,20.3,27.19,North,0,0.0,0.0,17,0.00,CLR,OVC,0.00,WeatherDisplay:10.37,2013-06-14 04:28:00,
2013-06-13 23:33:00,66.4,20.2,27.19,North,0,0.0,0.0,17,0.00,CLR,OVC,0.00,WeatherDisplay:10.37,2013-06-14 04:33:00,
2013-06-13 23:38:00,66.2,20.0,27.19,North,0,0.0,0.0,17,0.00,CLR,OVC,0.00,WeatherDisplay:10.37,2013-06-14 04:38:00,
2013-06-13 23:43:00,66.2,23.9,27.19,North,0,0.0,0.0,20,0.00,CLR,OVC,0.00,WeatherDisplay:10.37,2013-06-14 04:43:00,
2013-06-13 23:48:00,66.0,23.8,27.19,North,0,0.0,0.0,20,0.00,CLR,OVC,0.00,WeatherDisplay:10.37,2013-06-14 04:48:00,
2013-06-13 23:53:00,66.2,23.9,27.19,North,0,0.0,0.0,20,0.00,CLR,OVC,0.00,WeatherDisplay:10.37,2013-06-14 04:53:00,
2013-06-13 23:58:00,66.2,23.9,27.19,North,0,0.0,0.0,20,0.00,CLR,OVC,0.00,WeatherDisplay:10.37,2013-06-14 04:58:00,